Retour au catalogue

STARLINK-34029

ActifCommunicationsVLEO
NORAD 63805·PAYLOAD·🇺🇸 United States

Lancé May 4, 2025 depuis Cape Canaveral Space Force Station

Loading…

Prochains Passages (prochaines 24 heures)

TLE

FraisSource: CelesTrak SupGP

Époque: Sep 14, 2026, 21:13 UTC

1 63805C 25092B   26257.88451389 -.00008458  00000+0 -30631-3 0  2577
2 63805  43.0003 184.4308 0001372 262.8917 160.9864 15.27585693    16

Suivez STARLINK-34029 en temps réel avec AllMySat

Download on the App Store